Lid_Strength_Index
4 4 4 4 4 5 4 4 5 5 6 6 6 6 6 6 6 5 5 2 0 0 0 1 1 1 1 2 2 2 2 2 3 3 3 3 3 3 3 3 3 3 4
4 4 4 4 4 3 4 4 5 6 7 7 7 7 7 7 7 7 7 5 2 1 1 1 1 1 2 2 2 2 3 3 3 3 3 4 4 4 4 4 4 4 4
3 3 4 4 3 3 3 4 6 8 9 9 10 10 9 8 8 9 9 8 8 4 2 2 2 2 2 2 3 3 3 3 3 4 4 4 4 4 4 4 4 5 5
2 4 4 4 4 5 6 6 7 10 11 11 12 13 13 12 11 11 10 10 9 9 6 3 3 3 3 3 3 4 4 4 4 4 4 4 4 4 5 5 5 5 5
1 3 4 4 4 6 7 7 9 10 11 12 12 13 14 14 14 13 13 11 10 11 11 7 5 4 4 4 4 4 4 5 5 5 5 6 6 5 5 5 5 5 6
1 2 4 4 4 7 8 8 10 10 12 12 13 13 14 15 15 16 15 13 12 13 13 12 12 9 5 5 5 5 5 5 6 6 6 6 6 6 6 6 6 6 6
1 2 3 4 5 7 8 9 10 11 12 12 13 14 14 15 16 16 16 16 16 15 15 14 13 13 11 7 6 6 6 6 6 7 7 7 7 7 7 7 7 7 6
1 2 3 4 5 6 8 10 11 11 12 13 14 14 17 17 16 16 16 16 17 16 16 15 15 14 14 13 10 8 7 7 7 8 8 8 8 8 7 7 7 7 6
1 2 3 4 5 6 8 9 11 11 12 13 13 12 16 17 18 17 17 17 17 17 17 16 16 15 15 15 13 12 9 9 9 9 9 9 9 8 8 8 7 7 7
2 2 3 4 5 5 7 10 10 10 11 13 12 11 12 15 18 20 18 17 18 18 18 18 17 16 15 16 14 13 11 11 11 11 10 10 10 9 8 8 7 7 7
4 3 3 4 4 5 6 8 10 10 10 11 11 11 12 14 16 17 19 19 18 18 18 18 18 18 16 16 16 14 12 11 11 11 11 11 10 10 9 8 7 7 6
5 4 4 3 3 4 6 8 9 9 10 9 10 10 11 13 15 17 18 18 18 18 18 18 18 18 17 17 15 14 13 12 12 12 12 11 11 10 9 8 7 7 6
7 5 4 4 4 4 5 7 9 9 10 10 10 10 10 11 12 14 17 18 19 18 19 18 18 17 17 17 17 14 13 13 12 12 11 11 10 10 9 8 7 7 7
6 6 6 4 4 5 5 6 8 8 9 9 9 10 10 11 12 14 17 18 19 19 19 19 18 17 17 17 16 14 17 13 12 12 12 11 10 10 9 8 8 7 7
7 7 6 6 6 6 6 7 7 9 9 9 9 10 10 11 13 14 15 16 17 20 20 20 19 16 16 17 16 15 17 15 12 12 11 11 10 10 9 8 8 7 7
7 8 7 7 7 7 7 7 8 9 9 9 9 10 10 12 12 14 15 16 17 17 19 18 18 17 16 16 16 16 17 15 13 12 12 11 10 10 9 9 8 8 7
8 9 9 8 8 8 8 8 8 9 10 9 9 10 11 13 14 15 16 16 17 17 18 19 18 17 17 17 17 16 17 17 16 13 12 11 10 9 9 9 8 8 8
10 9 10 10 9 9 9 8 9 9 10 11 11 12 12 14 15 15 16 17 17 17 18 19 19 19 18 17 18 18 18 17 16 13 11 11 10 9 9 9 8 8 8
10 12 12 12 11 11 11 10 10 10 10 11 11 13 14 15 15 16 16 17 17 17 18 19 20 19 19 18 18 18 17 16 16 14 11 10 10 9 9 9 9 9 8
12 13 13 13 14 13 13 12 12 12 12 12 13 13 15 15 15 16 17 17 18 18 18 18 19 20 19 18 18 18 17 16 16 15 13 12 11 11 9 9 9 9 9
13 14 15 15 15 14 14 14 13 13 14 15 15 15 15 16 15 16 17 17 17 18 18 19 19 20 19 19 19 17 18 17 16 15 15 15 15 14 14 12 11 10 9
14 15 15 16 16 15 14 12 13 14 14 15 16 16 16 16 15 14 14 15 16 18 19 19 19 19 18 18 17 17 17 17 18 15 16 16 15 14 14 13 10 9 8
15 15 16 16 16 15 13 12 13 15 15 15 16 16 17 16 16 15 14 14 15 14 15 17 18 17 17 16 16 17 16 16 17 15 16 17 14 15 13 12 10 9 9
16 16 17 17 16 16 14 12 13 15 15 15 16 16 16 16 15 16 16 16 16 16 15 15 15 15 16 15 15 15 15 16 16 15 15 19 16 16 14 13 10 10 10
18 18 17 18 16 16 14 12 13 16 16 16 16 16 15 16 14 14 16 16 17 16 14 13 14 14 13 13 13 15 17 18 18 16 15 16 16 16 15 15 14 12 12
17 16 15 15 15 16 13 12 12 15 16 16 16 16 15 15 13 13 16 16 16 16 16 16 15 14 12 12 11 13 14 17 18 19 16 18 17 17 20 17 16 16 16